This is the latest recevied weather packets stored in our database for station/object NO4D. If no packets are shown the sender has not sent any weather packets the latest 10 day(s).
| Time | Temp. | Humidity | Pressure | Rain* | Wind** | Luminosity | Snow |
|---|---|---|---|---|---|---|---|
| 1777152668 | 18.89° C | 94% | 1010.5 hPa | 16.76 mm | - | 10 W/m² | - |
| 1777152365 | 19.44° C | 94% | 1010.6 hPa | 13.21 mm | - | 16 W/m² | - |
| 1777152060 | 20° C | 91% | 1010.5 hPa | 4.32 mm | - | 9 W/m² | - |
| 1777151755 | 20° C | 90% | 1009.8 hPa | 0 mm | - | 46 W/m² | - |
| 1777151452 | 20° C | 90% | 1009.8 hPa | 0 mm | - | 78 W/m² | - |
| 1777151149 | 20° C | 89% | 1009.8 hPa | 0 mm | - | 98 W/m² | - |
| 1777150848 | 20.56° C | 89% | 1009.9 hPa | 0 mm | - | 109 W/m² | - |
| 1777150549 | 20.56° C | 88% | 1009.8 hPa | 0 mm | - | 96 W/m² | - |
| 1777150244 | 20.56° C | 87% | 1009.7 hPa | 0 mm | - | 97 W/m² | - |
| 1777149943 | 20.56° C | 85% | 1009.7 hPa | 0 mm | - | 92 W/m² | - |
| 1777149638 | 20.56° C | 83% | 1009.6 hPa | 0 mm | - | 82 W/m² | - |
| 1777149335 | 21.11° C | 83% | 1009.7 hPa | 0 mm | - | 78 W/m² | - |
| 1777149031 | 21.11° C | 81% | 1009.5 hPa | 0 mm | - | 79 W/m² | - |
| 1777148726 | 21.11° C | 78% | 1009.7 hPa | 0 mm | - | 80 W/m² | - |
| 1777148422 | 21.67° C | 77% | 1009.7 hPa | 0 mm | - | 87 W/m² | - |
| 1777148119 | 21.67° C | 77% | 1009.6 hPa | 0 mm | - | 89 W/m² | - |
| 1777147814 | 21.67° C | 75% | 1009.6 hPa | 0 mm | - | 92 W/m² | - |
| 1777147511 | 21.67° C | 75% | 1009.5 hPa | 0 mm | - | 107 W/m² | - |
| 1777147206 | 21.67° C | 73% | 1009.7 hPa | 0 mm | - | 84 W/m² | - |
| 1777146902 | 21.67° C | 73% | 1009.5 hPa | 0 mm | - | 69 W/m² | - |
| 1777146599 | 22.22° C | 74% | 1009.7 hPa | 0 mm | - | 68 W/m² | - |
| 1777146294 | 22.22° C | 71% | 1009.8 hPa | 0 mm | - | 65 W/m² | - |
| 1777145990 | 22.78° C | 68% | 1009.8 hPa | 0 mm | - | 66 W/m² | - |
| 1777145687 | 23.33° C | 64% | 1009.6 hPa | 0 mm | - | 53 W/m² | - |
* Rain latest hour (hover to see other rain measurements)
** Current wind speed in m/s (hover to see current wind gust speed)